Regional Weather Roundup
Issued by NWS Memphis, TN

Home | Current Version | Previous Version | Text Only | Print | Product List | Glossary On
Versions: 1 2 3 4 5 6 7 8 9 10 11 12 13 14 15 16 17 18 19 20 21 22 23 24 25 26 27 28 29 30 31 32 33 34 35 36 37 38 39 40 41 42 43 44 45 46 47 48 49 50
000
ASUS44 KMEG 301210
RWRMEG
MEMPHIS CWA HOURLY WEATHER ROUNDUP
NATIONAL WEATHER SERVICE MEMPHIS TN
700 AM CDT TUE SEP 30 2014

...WEST TENNESSEE...

CITY           SKY/WX    TMP DP  RH WIND       PRES   REMARKS
MEMPHIS INTL   PTCLDY    65  58  78 CALM      29.95R
6HR MIN TEMP:  63; 6HR MAX TEMP:  69;

NWS MEMPHIS      N/A     60 N/A N/A MISG        N/A
JACKSON        CLEAR     55  54  94 CALM      29.96R FOG
6HR MIN TEMP:  56; 6HR MAX TEMP:  61;

LEXINGTON      CLOUDY    55  55 100 CALM      29.95S VSB 1/4
SAVANNAH       CLEAR     55  55 100 CALM      29.97R
DYERSBURG      CLEAR     57  46  67 CALM      29.97R
6HR MIN TEMP:  57; 6HR MAX TEMP:  63;

UNION CITY     CLEAR     54  54 100 CALM      29.95R
PARIS          CLEAR     54  50  87 CALM      29.96S
HUNTINGDON     CLEAR     54  53  96 CALM      29.97R


...EASTERN ARKANSAS...

CITY           SKY/WX    TMP DP  RH WIND       PRES   REMARKS
JONESBORO      CLEAR     57  55  93 CALM      29.96R
6HR MIN TEMP:  57; 6HR MAX TEMP:  62;

WEST MEMPHIS   CLEAR     58  57  97 NW3       29.94R
6HR MIN TEMP:  58; 6HR MAX TEMP:  62;

BATESVILLE     CLEAR     57  54  88 W3        29.97S
6HR MIN TEMP:  57; 6HR MAX TEMP:  63;

NEWPORT        CLOUDY    58  56  93 NW3       29.98R
6HR MIN TEMP:  58; 6HR MAX TEMP:  63;

WALNUT RIDGE   CLEAR     55  52  88 CALM      29.96S
6HR MIN TEMP:  55; 6HR MAX TEMP:  63;

BLYTHEVILLE    CLEAR     58  56  93 NE3       29.96R
6HR MIN TEMP:  57; 6HR MAX TEMP:  63;

SEARCY         CLEAR     59  57  93 CALM      29.98R
6HR MIN TEMP:  57; 6HR MAX TEMP:  62;

STUTTGART      CLEAR    N/A N/A N/A N6        29.96S
PINE BLUFF     CLEAR     62  60  93 CALM      29.95S FOG
6HR MIN TEMP:  60; 6HR MAX TEMP:  64;

MONTICELLO     CLEAR     62  59  90 CALM      29.94R
6HR MIN TEMP:  61; 6HR MAX TEMP:  65;



...NORTH MISSISSIPPI...

CITY           SKY/WX    TMP DP  RH WIND       PRES   REMARKS
TUPELO         CLEAR     61  59  93 CALM      29.95R
6HR MIN TEMP:  61; 6HR MAX TEMP:  66;

OXFORD         CLEAR     57  57 100 CALM      29.97R
OLIVE BRANCH   PTCLDY    59  59 100 CALM      29.95S
TUNICA         CLEAR     59  57  94 CALM      29.96R
CLARKSDALE       N/A     59  59 100 N5        29.96R VSB 1/2
CORINTH        FOG       55  55 100 CALM      29.96R VSB 3/4
GRENADA        CLEAR     59  59 100 NW5       29.94R
GREENWOOD      CLEAR     60  59  96 CALM      29.93R FOG
6HR MIN TEMP:  60; 6HR MAX TEMP:  64;

COLUMBUS       FOG       61  61 100 NE1       29.96R VSB 1/4
STARKVILLE     FAIR      59  59 100 CALM      29.95R FOG
GOLDEN TRIANGL CLEAR     63  57  82 CALM      29.94R


...SOUTHEAST MISSOURI...

CITY           SKY/WX    TMP DP  RH WIND       PRES   REMARKS
WEST PLAINS    CLEAR     56  53  90 CALM      30.00S
6HR MIN TEMP:  55; 6HR MAX TEMP:  62;

POPLAR BLUFF   FOG       55  52  89 CALM      29.95S VSB 1/4
6HR MIN TEMP:  55; 6HR MAX TEMP:  59;

CAPE GIRARDEAU FOG       50  50 100 CALM      29.96S VSB<1/4
6HR MIN TEMP:  50; 6HR MAX TEMP:  56;



...NORTHWEST ALABAMA...

CITY           SKY/WX    TMP DP  RH WIND       PRES   REMARKS
MUSCLE SHOALS  CLEAR     58  54  86 CALM      29.98R FOG
6HR MIN TEMP:  57; 6HR MAX TEMP:  62;



...MIDDLE TENNESSEE...

CITY           SKY/WX    TMP DP  RH WIND       PRES   REMARKS
NASHVILLE      PTCLDY    59  58  96 S3        29.97R
6HR MIN TEMP:  59; 6HR MAX TEMP:  66;

CLARKSVILLE    FOG       54  54 100 CALM      29.96R VSB<1/4
6HR MIN TEMP:  51; 6HR MAX TEMP:  60;

DICKSON        CLEAR     59  55  88 CALM      29.97R
COLUMBIA       CLEAR    N/A N/A N/A CALM      29.97R
LEWISBURG      CLEAR     53  53 100 CALM      29.97R


...WESTERN KENTUCKY...

CITY           SKY/WX    TMP DP  RH WIND       PRES   REMARKS
PADUCAH        CLEAR     53  52  96 CALM      29.95R
6HR MIN TEMP:  52; 6HR MAX TEMP:  58;

FORT CAMPBELL  CLEAR     56  56 100 NE1       29.96R
6HR MIN TEMP:  53; 6HR MAX TEMP:  63;



...CENTRAL ARKANSAS...

CITY           SKY/WX    TMP DP  RH WIND       PRES   REMARKS
LITTLE ROCK    PTCLDY    64  60  87 CALM      29.96S
6HR MIN TEMP:  63; 6HR MAX TEMP:  68;



SKY/WX REPORTED AS FAIR MEANS FEW OR NO CLOUDS BELOW
12 THOUSAND FEET.



USA.gov is the U.S. government's official web portal to all federal, state and local government web resources and services.